When you browse on this site, cookies collect data to enhance your experience and personalize the content and advertising you see.
Visit our Privacy Policy to learn more. By continuing to use the site, you agree to this use of cookies and data.
  • In Spain
  • List of Countries
  • For 7 days
  • Water Temperature
  • Satellite Maps
  • Weather Map
  • Weather Widgets
  • user-avatar
    Login

    Hourly Weather Andora

    Today, 14 December, Friday

    Time Temperature Precipitation Wind Pressure Humidity
    00:00 -1°C° 0 mm 3 mps 617 mmHg 91%
    01:00 -1°C° 0.5 mm 3 mps 618 mmHg 90%
    02:00 -1°C° 0.5 mm 3 mps 618 mmHg 90%
    03:00 -1°C° 0.5 mm 2 mps 618 mmHg 89%
    04:00 -2°C° 0.3 mm 2 mps 618 mmHg 89%
    05:00 -2°C° 0.3 mm 2 mps 619 mmHg 89%
    06:00 -2°C° 0.3 mm 2 mps 619 mmHg 89%
    07:00 -1°C° 0.2 mm 2 mps 620 mmHg 87%
    08:00 -1°C° 0.2 mm 2 mps 620 mmHg 86%
    09:00 -1°C° 0.2 mm 2 mps 621 mmHg 84%
    10:00 0°C° 0.1 mm 3 mps 621 mmHg 81%
    11:00 +1°C° 0.1 mm 3 mps 622 mmHg 78%
    12:00 +1°C° 0.1 mm 3 mps 622 mmHg 75%
    13:00 +1°C° 0.1 mm 3 mps 623 mmHg 75%
    14:00 +1°C° 0.1 mm 3 mps 623 mmHg 76%
    15:00 +1°C° 0.1 mm 3 mps 623 mmHg 76%
    16:00 0°C° 0.1 mm 3 mps 623 mmHg 80%
    17:00 -1°C° 0.1 mm 3 mps 623 mmHg 84%
    18:00 -2°C° 0.1 mm 3 mps 623 mmHg 87%
    19:00 -2°C° 0 mm 3 mps 623 mmHg 87%
    20:00 -2°C° 0 mm 3 mps 623 mmHg 87%
    21:00 -2°C° 0 mm 3 mps 624 mmHg 86%
    22:00 -3°C° 0 mm 2 mps 624 mmHg 85%
    23:00 -3°C° 0 mm 2 mps 624 mmHg 85%

    Tomorrow, 15 December, Saturday

    Time Temperature Precipitation Wind Pressure Humidity
    00:00 -3°C° 0 mm 2 mps 624 mmHg 84%
    01:00 -4°C° 0 mm 2 mps 624 mmHg 83%
    02:00 -4°C° 0 mm 2 mps 624 mmHg 81%
    03:00 -4°C° 0 mm 2 mps 623 mmHg 80%
    04:00 -4°C° 0 mm 2 mps 623 mmHg 77%
    05:00 -4°C° 0 mm 2 mps 623 mmHg 73%
    06:00 -4°C° 0 mm 2 mps 623 mmHg 70%
    07:00 -2°C° 0 mm 2 mps 624 mmHg 67%
    08:00 +1°C° 0 mm 1 mps 625 mmHg 64%
    09:00 +3°C° 0 mm 1 mps 625 mmHg 61%
    10:00 +4°C° 0 mm 1 mps 626 mmHg 61%
    11:00 +6°C° 0 mm 1 mps 626 mmHg 60%
    12:00 +8°C° 0 mm 1 mps 627 mmHg 59%
    13:00 +7°C° 0.1 mm 1 mps 626 mmHg 65%
    14:00 +6°C° 0.1 mm 1 mps 626 mmHg 70%
    15:00 +6°C° 0.1 mm 1 mps 625 mmHg 76%
    16:00 +5°C° 0.1 mm 1 mps 625 mmHg 78%
    17:00 +4°C° 0.1 mm 1 mps 625 mmHg 81%
    18:00 +4°C° 0.1 mm 1 mps 624 mmHg 83%
    19:00 +4°C° 0.1 mm 1 mps 624 mmHg 84%
    20:00 +4°C° 0.1 mm 1 mps 624 mmHg 84%
    21:00 +4°C° 0.1 mm 1 mps 625 mmHg 84%
    22:00 +4°C° 0 mm 1 mps 624 mmHg 85%
    23:00 +4°C° 0 mm 1 mps 624 mmHg 86%

    Day after tomorrow, 16 December, Sunday

    Time Temperature Precipitation Wind Pressure Humidity
    00:00 +3°C° 0 mm 1 mps 624 mmHg 87%
    01:00 +3°C° 0.1 mm 1 mps 624 mmHg 87%
    02:00 +3°C° 0.1 mm 1 mps 623 mmHg 88%
    03:00 +3°C° 0.1 mm 1 mps 623 mmHg 88%
    04:00 +3°C° 0.2 mm 1 mps 623 mmHg 89%
    05:00 +3°C° 0.2 mm 1 mps 623 mmHg 89%
    06:00 +2°C° 0.2 mm 0 mps 623 mmHg 90%
    07:00 +3°C° 0.7 mm 1 mps 623 mmHg 90%
    08:00 +4°C° 0.7 mm 1 mps 623 mmHg 91%
    09:00 +4°C° 0.7 mm 1 mps 624 mmHg 91%
    10:00 +4°C° 1.1 mm 1 mps 623 mmHg 92%
    11:00 +4°C° 1.1 mm 1 mps 623 mmHg 92%
    12:00 +3°C° 1.1 mm 2 mps 623 mmHg 93%
    13:00 +3°C° 0.3 mm 2 mps 623 mmHg 92%
    14:00 +3°C° 0.3 mm 2 mps 622 mmHg 92%
    15:00 +3°C° 0.3 mm 2 mps 622 mmHg 92%
    16:00 +2°C° 0.1 mm 2 mps 622 mmHg 94%
    17:00 +1°C° 0.1 mm 2 mps 622 mmHg 95%
    18:00 -1°C° 0.1 mm 2 mps 622 mmHg 97%
    19:00 -1°C° 0.2 mm 2 mps 622 mmHg 96%
    20:00 -1°C° 0.2 mm 2 mps 623 mmHg 95%
    21:00 -1°C° 0.2 mm 2 mps 623 mmHg 94%
    22:00 -1°C° 0.1 mm 2 mps 623 mmHg 93%
    23:00 -2°C° 0.1 mm 2 mps 624 mmHg 92%

    17 December, Monday

    Time Temperature Precipitation Wind Pressure Humidity
    00:00 -2°C° 0.1 mm 2 mps 624 mmHg 91%
    01:00 -3°C° 0 mm 2 mps 624 mmHg 90%
    02:00 -4°C° 0 mm 3 mps 624 mmHg 88%
    03:00 -5°C° 0 mm 3 mps 624 mmHg 87%
    04:00 -5°C° 0 mm 3 mps 624 mmHg 86%
    05:00 -5°C° 0 mm 3 mps 624 mmHg 85%
    06:00 -6°C° 0 mm 3 mps 624 mmHg 84%
    07:00 -4°C° 0 mm 2 mps 625 mmHg 82%
    08:00 -3°C° 0 mm 2 mps 626 mmHg 79%
    09:00 -2°C° 0 mm 2 mps 627 mmHg 77%
    10:00 -1°C° 0 mm 2 mps 627 mmHg 71%
    11:00 +1°C° 0 mm 2 mps 628 mmHg 66%
    12:00 +2°C° 0 mm 2 mps 629 mmHg 60%
    13:00 +2°C° 0 mm 2 mps 628 mmHg 61%
    14:00 +2°C° 0 mm 2 mps 628 mmHg 62%
    15:00 +3°C° 0 mm 1 mps 628 mmHg 63%
    16:00 +1°C° 0 mm 1 mps 628 mmHg 68%
    17:00 0°C° 0 mm 1 mps 627 mmHg 74%
    18:00 -2°C° 0 mm 1 mps 627 mmHg 79%
    19:00 -2°C° 0 mm 1 mps 627 mmHg 76%
    20:00 -2°C° 0 mm 1 mps 627 mmHg 73%
    21:00 -2°C° 0 mm 1 mps 628 mmHg 70%
    22:00 -2°C° 0 mm 1 mps 627 mmHg 68%
    23:00 -1°C° 0 mm 1 mps 627 mmHg 67%

    18 December, Tuesday

    Time Temperature Precipitation Wind Pressure Humidity
    00:00 -1°C° 0 mm 1 mps 627 mmHg 66%
    01:00 -1°C° 0 mm 1 mps 627 mmHg 66%
    02:00 -1°C° 0 mm 1 mps 626 mmHg 65%
    03:00 -1°C° 0 mm 1 mps 626 mmHg 65%
    04:00 -3°C° 0 mm 2 mps 626 mmHg 63%
    05:00 -3°C° 0 mm 2 mps 625 mmHg 61%
    06:00 -4°C° 0 mm 2 mps 625 mmHg 59%
    07:00 -3°C° 0 mm 2 mps 625 mmHg 55%
    08:00 -1°C° 0 mm 2 mps 626 mmHg 52%
    09:00 +1°C° 0 mm 2 mps 626 mmHg 48%
    10:00 +2°C° 0 mm 2 mps 626 mmHg 46%
    11:00 +2°C° 0 mm 3 mps 626 mmHg 44%
    12:00 +4°C° 0 mm 3 mps 626 mmHg 43%
    13:00 +3°C° 0 mm 3 mps 626 mmHg 45%
    14:00 +3°C° 0 mm 3 mps 625 mmHg 48%
    15:00 +2°C° 0 mm 3 mps 625 mmHg 50%
    16:00 +2°C° 0 mm 2 mps 625 mmHg 52%
    17:00 +1°C° 0 mm 2 mps 624 mmHg 55%
    18:00 -1°C° 0 mm 2 mps 624 mmHg 57%
    19:00 -1°C° 0 mm 2 mps 624 mmHg 59%
    20:00 -1°C° 0 mm 2 mps 624 mmHg 61%
    21:00 -1°C° 0 mm 2 mps 624 mmHg 63%
    22:00 -1°C° 0.2 mm 2 mps 624 mmHg 66%
    23:00 +1°C° 0.2 mm 1 mps 624 mmHg 69%

    19 December, Wednesday

    Time Temperature Precipitation Wind Pressure Humidity
    00:00 +1°C° 0.2 mm 1 mps 624 mmHg 72%
    01:00 +1°C° 0.3 mm 1 mps 624 mmHg 75%
    02:00 +1°C° 0.3 mm 1 mps 623 mmHg 78%
    03:00 +1°C° 0.3 mm 1 mps 623 mmHg 81%
    04:00 +1°C° 0.2 mm 1 mps 623 mmHg 84%
    05:00 +1°C° 0.2 mm 1 mps 623 mmHg 86%
    06:00 +1°C° 0.2 mm 1 mps 623 mmHg 88%
    07:00 +2°C° 0.3 mm 1 mps 623 mmHg 88%
    08:00 +2°C° 0.3 mm 1 mps 624 mmHg 89%
    09:00 +2°C° 0.3 mm 1 mps 624 mmHg 89%
    10:00 +3°C° 0.1 mm 1 mps 624 mmHg 88%
    11:00 +4°C° 0.1 mm 1 mps 624 mmHg 87%
    12:00 +3°C° 0.1 mm 2 mps 624 mmHg 86%
    13:00 +4°C° 0.1 mm 1 mps 624 mmHg 87%
    14:00 +4°C° 0.1 mm 1 mps 624 mmHg 89%
    15:00 +3°C° 0.1 mm 1 mps 624 mmHg 90%
    16:00 +3°C° 0.1 mm 1 mps 624 mmHg 92%
    17:00 +2°C° 0.1 mm 1 mps 624 mmHg 94%
    18:00 +1°C° 0.1 mm 1 mps 624 mmHg 96%
    19:00 +1°C° 0.1 mm 1 mps 624 mmHg 96%
    20:00 +1°C° 0.1 mm 1 mps 624 mmHg 95%
    21:00 0°C° 0.1 mm 1 mps 624 mmHg 95%
    22:00 0°C° 0.1 mm 1 mps 624 mmHg 94%
    23:00 0°C° 0.1 mm 1 mps 624 mmHg 94%
    Show more